Time,TemperatureF,DewpointF,PressureIn,WindDirection,WindDirectionDegrees,WindSpeedMPH,WindSpeedGustMPH,Humidity,HourlyPrecipIn,Conditions,Clouds,dailyrainin,SoftwareType,DateUTC
2013-10-19 00:01:00,65.5,63.4,29.95,ESE,116,0.0,0.0,93,0.00,CLR,,0.00,WeatherDisplay:10.37,2013-10-19 05:01:00,
2013-10-19 00:06:00,65.5,63.4,29.96,ESE,115,0.0,0.0,93,0.00,CLR,,0.00,WeatherDisplay:10.37,2013-10-19 05:06:00,
2013-10-19 00:11:00,65.4,63.3,29.96,ESE,116,0.0,0.0,93,0.00,CLR,,0.00,WeatherDisplay:10.37,2013-10-19 05:11:00,
2013-10-19 00:16:00,65.4,63.3,29.96,ESE,116,0.0,0.0,93,0.00,CLR,,0.00,WeatherDisplay:10.37,2013-10-19 05:16:00,
2013-10-19 00:21:00,65.4,63.3,29.96,ESE,115,0.0,0.0,93,0.00,CLR,,0.00,WeatherDisplay:10.37,2013-10-19 05:21:00,
2013-10-19 00:26:00,65.4,63.3,29.96,ESE,116,0.0,0.0,93,0.00,CLR,,0.00,WeatherDisplay:10.37,2013-10-19 05:26:00,
2013-10-19 00:31:00,65.4,63.3,29.96,ESE,116,0.0,0.0,93,0.00,CLR,,0.00,WeatherDisplay:10.37,2013-10-19 05:31:00,
2013-10-19 00:36:00,65.3,63.2,29.96,ESE,115,0.0,0.0,93,0.00,CLR,,0.00,WeatherDisplay:10.37,2013-10-19 05:36:00,
2013-10-19 00:41:00,65.3,63.2,29.95,ESE,115,0.0,0.0,93,0.00,CLR,,0.00,WeatherDisplay:10.37,2013-10-19 05:41:00,
2013-10-19 00:46:00,65.2,63.1,29.95,ESE,116,0.0,0.0,93,0.00,CLR,,0.00,WeatherDisplay:10.37,2013-10-19 05:46:00,
2013-10-19 00:51:00,65.2,63.1,29.95,ESE,116,0.0,0.0,93,0.00,CLR,,0.00,WeatherDisplay:10.37,2013-10-19 05:51:00,
2013-10-19 00:56:00,65.2,63.1,29.96,ESE,115,0.0,0.0,93,0.00,CLR,,0.00,WeatherDisplay:10.37,2013-10-19 05:56:00,
2013-10-19 01:01:00,65.2,63.1,29.96,ESE,116,0.0,0.0,93,0.00,CLR,,0.00,WeatherDisplay:10.37,2013-10-19 06:01:00,
2013-10-19 01:06:00,65.2,63.1,29.96,ESE,115,0.0,0.0,93,0.00,CLR,,0.00,WeatherDisplay:10.37,2013-10-19 06:06:00,
2013-10-19 01:11:00,65.2,63.1,29.95,ESE,115,0.0,0.0,93,0.00,CLR,,0.00,WeatherDisplay:10.37,2013-10-19 06:11:00,
2013-10-19 01:16:00,65.3,63.2,29.96,ESE,115,0.0,0.0,93,0.00,CLR,,0.00,WeatherDisplay:10.37,2013-10-19 06:16:00,
2013-10-19 01:21:00,65.3,63.5,29.96,ESE,116,3.5,3.5,94,0.00,CLR,,0.00,WeatherDisplay:10.37,2013-10-19 06:21:00,
2013-10-19 01:26:00,65.4,63.6,29.97,ESE,105,3.0,3.0,94,0.00,CLR,,0.00,WeatherDisplay:10.37,2013-10-19 06:26:00,
2013-10-19 01:31:00,65.4,63.6,29.97,ENE,73,2.3,0.0,94,0.00,CLR,,0.00,WeatherDisplay:10.37,2013-10-19 06:31:00,
2013-10-19 01:36:00,65.4,63.3,29.97,ENE,72,3.5,3.5,93,0.00,CLR,,0.00,WeatherDisplay:10.37,2013-10-19 06:36:00,
2013-10-19 01:41:00,65.3,63.2,29.97,ENE,72,0.0,0.0,93,0.00,CLR,,0.00,WeatherDisplay:10.37,2013-10-19 06:41:00,
2013-10-19 01:46:00,65.2,63.1,29.97,ENE,69,5.0,5.0,93,0.00,CLR,,0.00,WeatherDisplay:10.37,2013-10-19 06:46:00,
2013-10-19 01:51:00,65.1,63.0,29.98,North,355,13.0,13.0,93,0.00,CLR,,0.00,WeatherDisplay:10.37,2013-10-19 06:51:00,
2013-10-19 01:56:00,63.9,61.2,29.99,North,351,13.8,13.8,91,0.00,CLR,,0.00,WeatherDisplay:10.37,2013-10-19 06:56:00,
2013-10-19 02:01:00,62.1,58.8,30.00,North,351,16.1,16.1,89,0.00,CLR,,0.00,WeatherDisplay:10.37,2013-10-19 07:01:00,
2013-10-19 02:06:00,60.9,57.6,30.00,North,355,12.7,12.7,89,0.00,CLR,,0.00,WeatherDisplay:10.37,2013-10-19 07:06:00,
2013-10-19 02:11:00,60.3,57.0,30.00,NNW,348,14.0,14.0,89,0.00,CLR,,0.00,WeatherDisplay:10.37,2013-10-19 07:11:00,
2013-10-19 02:16:00,59.6,56.4,30.00,North,351,10.4,10.4,89,0.00,CLR,,0.00,WeatherDisplay:10.37,2013-10-19 07:16:00,
2013-10-19 02:21:00,59.4,56.2,30.00,North,355,12.7,12.7,89,0.00,CLR,,0.00,WeatherDisplay:10.37,2013-10-19 07:21:00,
2013-10-19 02:26:00,58.9,55.7,30.00,NNW,348,13.8,13.8,89,0.00,CLR,,0.00,WeatherDisplay:10.37,2013-10-19 07:26:00,
2013-10-19 02:31:00,58.5,55.3,30.01,North,355,10.0,10.0,89,0.00,CLR,,0.00,WeatherDisplay:10.37,2013-10-19 07:31:00,
2013-10-19 02:36:00,58.2,54.7,30.01,North,355,13.8,13.8,88,0.00,CLR,,0.00,WeatherDisplay:10.37,2013-10-19 07:36:00,
2013-10-19 02:41:00,57.9,54.4,30.01,NNW,344,10.4,10.4,88,0.00,CLR,,0.00,WeatherDisplay:10.37,2013-10-19 07:41:00,
2013-10-19 02:46:00,57.7,54.2,30.01,North,350,9.2,9.2,88,0.00,CLR,,0.00,WeatherDisplay:10.37,2013-10-19 07:46:00,
2013-10-19 02:51:00,57.5,54.0,30.02,North,360,11.0,11.0,88,0.00,CLR,,0.00,WeatherDisplay:10.37,2013-10-19 07:51:00,
2013-10-19 02:56:00,57.3,53.8,30.02,North,355,10.0,10.0,88,0.00,CLR,,0.00,WeatherDisplay:10.37,2013-10-19 07:56:00,
2013-10-19 03:01:00,57.0,53.2,30.02,NNW,346,15.0,15.0,87,0.00,CLR,,0.00,WeatherDisplay:10.37,2013-10-19 08:01:00,
2013-10-19 03:06:00,56.7,52.9,30.02,North,355,11.5,11.5,87,0.00,CLR,,0.00,WeatherDisplay:10.37,2013-10-19 08:06:00,
2013-10-19 03:11:00,56.4,52.6,30.02,NNW,327,12.7,12.7,87,0.00,CLR,,0.00,WeatherDisplay:10.37,2013-10-19 08:11:00,
2013-10-19 03:16:00,56.2,52.1,30.02,North,5,11.5,11.5,86,0.00,CLR,,0.00,WeatherDisplay:10.37,2013-10-19 08:16:00,
2013-10-19 03:21:00,56.1,52.0,30.02,North,360,6.9,6.9,86,0.00,CLR,,0.00,WeatherDisplay:10.37,2013-10-19 08:21:00,
2013-10-19 03:26:00,55.9,51.8,30.02,NNW,344,12.7,12.7,86,0.00,CLR,,0.00,WeatherDisplay:10.37,2013-10-19 08:26:00,
2013-10-19 03:31:00,55.9,51.8,30.02,NNW,346,11.5,11.5,86,0.00,CLR,,0.00,WeatherDisplay:10.37,2013-10-19 08:31:00,
2013-10-19 03:36:00,55.8,52.0,30.02,North,355,10.4,10.4,87,0.00,CLR,,0.00,WeatherDisplay:10.37,2013-10-19 08:36:00,
2013-10-19 03:41:00,55.8,52.0,30.02,North,349,15.0,15.0,87,0.00,CLR,,0.00,WeatherDisplay:10.37,2013-10-19 08:41:00,
2013-10-19 03:46:00,55.8,52.0,30.02,NNW,343,8.1,8.1,87,0.00,CLR,,0.00,WeatherDisplay:10.37,2013-10-19 08:46:00,
2013-10-19 03:51:00,55.8,51.7,30.02,North,355,12.7,12.7,86,0.00,CLR,,0.00,WeatherDisplay:10.37,2013-10-19 08:51:00,
2013-10-19 03:56:00,55.7,51.6,30.02,North,360,5.8,5.8,86,0.00,CLR,,0.00,WeatherDisplay:10.37,2013-10-19 08:56:00,
2013-10-19 04:01:00,55.7,51.6,30.02,North,351,9.2,9.2,86,0.00,CLR,,0.00,WeatherDisplay:10.37,2013-10-19 09:01:00,
2013-10-19 04:06:00,55.6,51.5,30.02,North,351,12.0,12.0,86,0.00,CLR,,0.00,WeatherDisplay:10.37,2013-10-19 09:06:00,
2013-10-19 04:11:00,55.5,51.1,30.02,North,355,9.2,9.2,85,0.00,CLR,,0.00,WeatherDisplay:10.37,2013-10-19 09:11:00,
2013-10-19 04:16:00,55.4,51.0,30.02,North,355,13.8,13.8,85,0.00,CLR,,0.00,WeatherDisplay:10.37,2013-10-19 09:16:00,
2013-10-19 04:21:00,55.4,51.0,30.02,NNW,341,13.8,13.8,85,0.00,CLR,,0.00,WeatherDisplay:10.37,2013-10-19 09:21:00,
2013-10-19 04:26:00,55.3,50.9,30.02,North,355,11.0,11.0,85,0.00,CLR,,0.00,WeatherDisplay:10.37,2013-10-19 09:26:00,
2013-10-19 04:31:00,55.2,50.8,30.02,North,5,14.0,14.0,85,0.00,CLR,,0.00,WeatherDisplay:10.37,2013-10-19 09:31:00,
2013-10-19 04:36:00,55.0,50.6,30.03,North,355,18.4,18.4,85,0.00,CLR,,0.00,WeatherDisplay:10.37,2013-10-19 09:36:00,
2013-10-19 04:41:00,55.0,50.6,30.03,North,360,12.7,12.7,85,0.00,CLR,,0.00,WeatherDisplay:10.37,2013-10-19 09:41:00,
2013-10-19 04:46:00,54.9,50.5,30.03,North,355,13.8,13.8,85,0.00,CLR,,0.00,WeatherDisplay:10.37,2013-10-19 09:46:00,
2013-10-19 04:51:00,54.9,50.5,30.03,North,350,11.5,11.5,85,0.00,CLR,,0.00,WeatherDisplay:10.37,2013-10-19 09:51:00,
2013-10-19 04:56:00,54.8,50.4,30.03,NNW,347,11.5,11.5,85,0.00,CLR,,0.00,WeatherDisplay:10.37,2013-10-19 09:56:00,
2013-10-19 05:01:00,54.8,50.4,30.03,NNW,346,13.8,13.8,85,0.00,CLR,,0.00,WeatherDisplay:10.37,2013-10-19 10:01:00,
2013-10-19 05:06:00,54.6,49.9,30.04,North,349,16.0,16.0,84,0.00,CLR,,0.00,WeatherDisplay:10.37,2013-10-19 10:06:00,
2013-10-19 05:11:00,54.6,49.9,30.04,North,355,11.5,11.5,84,0.00,CLR,,0.00,WeatherDisplay:10.37,2013-10-19 10:11:00,
2013-10-19 05:16:00,54.5,49.8,30.04,North,360,12.0,12.0,84,0.00,CLR,,0.00,WeatherDisplay:10.37,2013-10-19 10:16:00,
2013-10-19 05:21:00,54.5,49.8,30.05,North,350,15.0,15.0,84,0.00,CLR,,0.00,WeatherDisplay:10.37,2013-10-19 10:21:00,
2013-10-19 05:26:00,54.4,49.7,30.05,North,355,12.7,12.7,84,0.00,CLR,,0.00,WeatherDisplay:10.37,2013-10-19 10:26:00,
2013-10-19 05:31:00,54.2,49.5,30.05,North,349,13.0,13.0,84,0.00,CLR,,0.00,WeatherDisplay:10.37,2013-10-19 10:31:00,
2013-10-19 05:36:00,54.0,49.0,30.05,North,351,18.4,18.4,83,0.00,CLR,,0.00,WeatherDisplay:10.37,2013-10-19 10:36:00,
2013-10-19 05:41:00,53.7,48.7,30.05,North,355,18.0,18.0,83,0.00,CLR,,0.00,WeatherDisplay:10.37,2013-10-19 10:41:00,
2013-10-19 05:46:00,53.5,48.1,30.06,NNW,341,13.8,13.8,82,0.00,CLR,,0.00,WeatherDisplay:10.37,2013-10-19 10:46:00,
2013-10-19 05:51:00,53.3,48.3,30.06,NNW,345,19.0,19.0,83,0.00,CLR,,0.00,WeatherDisplay:10.37,2013-10-19 10:51:00,
2013-10-19 05:56:00,53.1,48.1,30.07,North,355,13.8,13.8,83,0.00,CLR,,0.00,WeatherDisplay:10.37,2013-10-19 10:56:00,
2013-10-19 06:01:00,52.9,47.9,30.07,North,355,15.0,15.0,83,0.00,CLR,,0.00,WeatherDisplay:10.37,2013-10-19 11:01:00,
2013-10-19 06:06:00,52.7,47.7,30.07,North,355,11.5,11.5,83,0.00,CLR,,0.00,WeatherDisplay:10.37,2013-10-19 11:06:00,
2013-10-19 06:11:00,52.6,47.9,30.07,North,355,16.1,16.1,84,0.00,CLR,,0.00,WeatherDisplay:10.37,2013-10-19 11:11:00,
2013-10-19 06:16:00,52.4,47.7,30.07,North,360,12.7,12.7,84,0.00,CLR,,0.00,WeatherDisplay:10.37,2013-10-19 11:16:00,
2013-10-19 06:21:00,52.3,47.6,30.08,NNW,346,16.1,16.1,84,0.00,CLR,,0.00,WeatherDisplay:10.37,2013-10-19 11:21:00,
2013-10-19 06:26:00,52.2,47.8,30.08,North,360,13.8,13.8,85,0.00,CLR,,0.00,WeatherDisplay:10.37,2013-10-19 11:26:00,
2013-10-19 06:31:00,52.1,47.7,30.07,North,360,4.6,4.6,85,0.00,CLR,,0.00,WeatherDisplay:10.37,2013-10-19 11:31:00,
2013-10-19 06:36:00,52.0,47.6,30.08,NNW,345,8.1,8.1,85,0.00,CLR,,0.00,WeatherDisplay:10.37,2013-10-19 11:36:00,
2013-10-19 06:41:00,51.9,47.5,30.08,North,349,8.0,8.0,85,0.00,CLR,,0.00,WeatherDisplay:10.37,2013-10-19 11:41:00,
2013-10-19 06:46:00,51.8,47.4,30.08,North,350,10.4,10.4,85,0.00,CLR,,0.00,WeatherDisplay:10.37,2013-10-19 11:46:00,
2013-10-19 06:51:00,51.7,47.3,30.08,NNW,341,12.7,12.7,85,0.00,CLR,,0.00,WeatherDisplay:10.37,2013-10-19 11:51:00,
2013-10-19 06:56:00,51.6,47.2,30.08,NNW,348,11.5,11.5,85,0.00,CLR,,0.00,WeatherDisplay:10.37,2013-10-19 11:56:00,
2013-10-19 07:01:00,51.5,47.1,30.08,North,350,12.7,12.7,85,0.00,CLR,,0.00,WeatherDisplay:10.37,2013-10-19 12:01:00,
2013-10-19 07:06:00,51.4,47.0,30.08,North,350,18.0,18.0,85,0.00,CLR,,0.00,WeatherDisplay:10.37,2013-10-19 12:06:00,
2013-10-19 07:11:00,51.3,46.9,30.08,North,355,15.0,15.0,85,0.00,CLR,,0.00,WeatherDisplay:10.37,2013-10-19 12:11:00,
2013-10-19 07:16:00,51.2,46.5,30.08,NNW,346,16.1,16.1,84,0.00,CLR,,0.00,WeatherDisplay:10.37,2013-10-19 12:16:00,
2013-10-19 07:21:00,51.1,46.4,30.08,NNW,335,17.3,17.3,84,0.00,CLR,,0.00,WeatherDisplay:10.37,2013-10-19 12:21:00,
2013-10-19 07:26:00,51.0,46.6,30.09,North,360,11.5,11.5,85,0.00,CLR,,0.00,WeatherDisplay:10.37,2013-10-19 12:26:00,
2013-10-19 07:31:00,50.9,46.6,30.09,North,360,16.0,16.0,85,0.00,CLR,,0.00,WeatherDisplay:10.37,2013-10-19 12:31:00,
2013-10-19 07:36:00,50.7,46.0,30.09,North,355,11.5,11.5,84,0.00,CLR,,0.00,WeatherDisplay:10.37,2013-10-19 12:36:00,
2013-10-19 07:41:00,50.5,45.5,30.10,North,355,15.0,15.0,83,0.00,CLR,,0.00,WeatherDisplay:10.37,2013-10-19 12:41:00,
2013-10-19 07:46:00,50.3,45.3,30.10,North,350,10.4,10.4,83,0.00,CLR,,0.00,WeatherDisplay:10.37,2013-10-19 12:46:00,
2013-10-19 07:51:00,50.2,45.2,30.10,NNW,342,18.4,18.4,83,0.00,CLR,,0.00,WeatherDisplay:10.37,2013-10-19 12:51:00,
2013-10-19 07:56:00,50.1,45.1,30.10,North,360,6.9,6.9,83,0.00,CLR,,0.00,WeatherDisplay:10.37,2013-10-19 12:56:00,
2013-10-19 08:01:00,50.1,45.1,30.11,North,360,11.5,11.5,83,0.00,CLR,,0.00,WeatherDisplay:10.37,2013-10-19 13:01:00,
2013-10-19 08:06:00,50.0,45.0,30.11,North,355,11.5,11.5,83,0.00,CLR,,0.00,WeatherDisplay:10.37,2013-10-19 13:06:00,
2013-10-19 08:11:00,50.0,45.0,30.11,North,355,12.7,12.7,83,0.00,CLR,,0.00,WeatherDisplay:10.37,2013-10-19 13:11:00,
2013-10-19 08:16:00,50.0,44.7,30.11,North,355,9.0,9.0,82,0.00,CLR,,0.00,WeatherDisplay:10.37,2013-10-19 13:16:00,
2013-10-19 08:21:00,50.1,44.8,30.12,North,349,9.2,9.2,82,0.00,CLR,,0.00,WeatherDisplay:10.37,2013-10-19 13:21:00,
2013-10-19 08:26:00,50.1,44.5,30.12,North,350,12.7,12.7,81,0.00,CLR,,0.00,WeatherDisplay:10.37,2013-10-19 13:26:00,
2013-10-19 08:31:00,50.2,44.6,30.12,North,350,6.0,6.0,81,0.00,CLR,,0.00,WeatherDisplay:10.37,2013-10-19 13:31:00,
2013-10-19 08:36:00,50.3,44.4,30.12,NNW,346,15.0,15.0,80,0.00,CLR,,0.00,WeatherDisplay:10.37,2013-10-19 13:36:00,
2013-10-19 08:41:00,50.4,44.5,30.12,North,360,9.2,9.2,80,0.00,CLR,,0.00,WeatherDisplay:10.37,2013-10-19 13:41:00,
2013-10-19 08:46:00,50.5,43.9,30.12,North,360,12.7,12.7,78,0.00,CLR,,0.00,WeatherDisplay:10.37,2013-10-19 13:46:00,
2013-10-19 08:51:00,50.6,44.0,30.13,North,355,12.7,12.7,78,0.00,CLR,,0.00,WeatherDisplay:10.37,2013-10-19 13:51:00,
2013-10-19 08:56:00,50.8,44.2,30.13,North,355,12.7,12.7,78,0.00,CLR,,0.00,WeatherDisplay:10.37,2013-10-19 13:56:00,
2013-10-19 09:01:00,51.0,44.0,30.13,North,355,12.7,12.7,77,0.00,CLR,,0.00,WeatherDisplay:10.37,2013-10-19 14:01:00,
2013-10-19 09:06:00,51.2,44.2,30.13,North,355,10.4,10.4,77,0.00,CLR,,0.00,WeatherDisplay:10.37,2013-10-19 14:06:00,
2013-10-19 09:11:00,51.4,44.1,30.14,North,350,13.8,13.8,76,0.00,CLR,,0.00,WeatherDisplay:10.37,2013-10-19 14:11:00,
2013-10-19 09:16:00,51.7,44.4,30.14,North,350,5.8,5.8,76,0.00,CLR,,0.00,WeatherDisplay:10.37,2013-10-19 14:16:00,
2013-10-19 09:21:00,52.0,44.3,30.14,North,355,11.5,11.5,75,0.00,CLR,,0.00,WeatherDisplay:10.37,2013-10-19 14:21:00,
2013-10-19 09:26:00,52.2,44.2,30.14,North,355,10.4,10.4,74,0.00,CLR,,0.00,WeatherDisplay:10.37,2013-10-19 14:26:00,
2013-10-19 09:31:00,52.4,44.0,30.14,North,360,10.4,10.4,73,0.00,CLR,,0.00,WeatherDisplay:10.37,2013-10-19 14:31:00,
2013-10-19 09:36:00,52.6,44.2,30.14,North,360,13.0,13.0,73,0.00,CLR,,0.00,WeatherDisplay:10.37,2013-10-19 14:36:00,
2013-10-19 09:41:00,52.8,44.0,30.15,North,355,13.8,13.8,72,0.00,CLR,,0.00,WeatherDisplay:10.37,2013-10-19 14:41:00,
2013-10-19 09:46:00,53.0,43.8,30.15,North,360,11.5,11.5,71,0.00,CLR,,0.00,WeatherDisplay:10.37,2013-10-19 14:46:00,
2013-10-19 09:51:00,53.4,44.2,30.15,North,360,12.0,12.0,71,0.00,CLR,,0.00,WeatherDisplay:10.37,2013-10-19 14:51:00,
2013-10-19 09:56:00,53.7,44.1,30.15,NNW,348,15.0,15.0,70,0.00,CLR,,0.00,WeatherDisplay:10.37,2013-10-19 14:56:00,
2013-10-19 10:01:00,53.9,44.0,30.15,NNW,335,12.0,12.0,69,0.00,CLR,,0.00,WeatherDisplay:10.37,2013-10-19 15:01:00,
2013-10-19 10:06:00,54.2,44.2,30.15,NNE,13,10.0,10.0,69,0.00,CLR,,0.00,WeatherDisplay:10.37,2013-10-19 15:06:00,
2013-10-19 10:11:00,54.4,43.7,30.15,North,360,13.8,13.8,67,0.00,CLR,,0.00,WeatherDisplay:10.37,2013-10-19 15:11:00,
2013-10-19 10:16:00,54.6,43.5,30.15,North,350,14.0,14.0,66,0.00,CLR,,0.00,WeatherDisplay:10.37,2013-10-19 15:16:00,
2013-10-19 10:21:00,54.8,43.7,30.15,North,9,10.0,10.0,66,0.00,CLR,,0.00,WeatherDisplay:10.37,2013-10-19 15:21:00,
2013-10-19 10:26:00,55.1,43.9,30.15,North,5,9.2,9.2,66,0.00,CLR,,0.00,WeatherDisplay:10.37,2013-10-19 15:26:00,
2013-10-19 10:31:00,55.5,43.9,30.15,NNW,339,16.1,16.1,65,0.00,CLR,,0.00,WeatherDisplay:10.37,2013-10-19 15:31:00,
2013-10-19 10:36:00,55.7,44.1,30.15,North,9,10.4,10.4,65,0.00,CLR,,0.00,WeatherDisplay:10.37,2013-10-19 15:36:00,
2013-10-19 10:41:00,56.1,44.1,30.16,North,360,13.8,13.8,64,0.00,CLR,,0.00,WeatherDisplay:10.37,2013-10-19 15:41:00,
2013-10-19 10:46:00,56.3,44.3,30.16,North,9,15.0,15.0,64,0.00,CLR,,0.00,WeatherDisplay:10.37,2013-10-19 15:46:00,
2013-10-19 10:51:00,56.6,44.1,30.16,North,355,11.5,11.5,63,0.00,CLR,,0.00,WeatherDisplay:10.37,2013-10-19 15:51:00,
2013-10-19 10:56:00,56.8,43.5,30.16,North,355,12.7,12.7,61,0.00,CLR,,0.00,WeatherDisplay:10.37,2013-10-19 15:56:00,
2013-10-19 11:01:00,56.9,43.2,30.16,NNE,14,12.7,12.7,60,0.00,CLR,,0.00,WeatherDisplay:10.37,2013-10-19 16:01:00,
2013-10-19 11:06:00,57.0,42.8,30.16,North,355,12.7,12.7,59,0.00,CLR,,0.00,WeatherDisplay:10.37,2013-10-19 16:06:00,
2013-10-19 11:11:00,57.1,42.5,30.16,NNW,346,11.5,11.5,58,0.00,CLR,,0.00,WeatherDisplay:10.37,2013-10-19 16:11:00,
2013-10-19 11:16:00,57.2,42.1,30.16,North,5,11.5,11.5,57,0.00,CLR,,0.00,WeatherDisplay:10.37,2013-10-19 16:16:00,
2013-10-19 11:21:00,57.4,42.7,30.16,North,360,11.5,11.5,58,0.00,CLR,,0.00,WeatherDisplay:10.37,2013-10-19 16:21:00,
2013-10-19 11:26:00,57.8,43.1,30.16,NNE,14,9.2,9.2,58,0.00,CLR,,0.00,WeatherDisplay:10.37,2013-10-19 16:26:00,
2013-10-19 11:31:00,58.1,42.0,30.16,NNW,343,9.2,9.2,55,0.00,CLR,,0.00,WeatherDisplay:10.37,2013-10-19 16:31:00,
2013-10-19 11:36:00,58.1,42.0,30.15,North,355,12.0,12.0,55,0.00,CLR,,0.00,WeatherDisplay:10.37,2013-10-19 16:36:00,
2013-10-19 11:41:00,58.3,42.7,30.16,NNW,348,11.5,11.5,56,0.00,CLR,,0.00,WeatherDisplay:10.37,2013-10-19 16:41:00,
2013-10-19 11:46:00,58.8,42.7,30.15,NNE,12,5.8,5.8,55,0.00,CLR,,0.00,WeatherDisplay:10.37,2013-10-19 16:46:00,
2013-10-19 11:51:00,59.0,41.9,30.15,NNE,25,9.2,9.2,53,0.00,CLR,,0.00,WeatherDisplay:10.37,2013-10-19 16:51:00,
2013-10-19 11:56:00,59.4,42.7,30.15,North,355,9.2,9.2,54,0.00,CLR,,0.00,WeatherDisplay:10.37,2013-10-19 16:56:00,
2013-10-19 12:01:00,59.4,41.3,30.15,NNE,17,9.2,9.2,51,0.00,CLR,,0.00,WeatherDisplay:10.37,2013-10-19 17:01:00,
2013-10-19 12:06:00,59.6,41.9,30.15,NNE,30,8.1,8.1,52,0.00,CLR,,0.00,WeatherDisplay:10.37,2013-10-19 17:06:00,
2013-10-19 12:11:00,59.8,42.1,30.15,North,360,8.1,8.1,52,0.00,CLR,,0.00,WeatherDisplay:10.37,2013-10-19 17:11:00,
2013-10-19 12:16:00,60.1,42.4,30.15,North,360,6.9,6.9,52,0.00,CLR,,0.00,WeatherDisplay:10.37,2013-10-19 17:16:00,
2013-10-19 12:21:00,60.3,40.0,30.15,North,360,15.0,15.0,47,0.00,CLR,,0.00,WeatherDisplay:10.37,2013-10-19 17:21:00,
2013-10-19 12:26:00,60.6,40.2,30.15,NNW,345,11.5,11.5,47,0.00,CLR,,0.00,WeatherDisplay:10.37,2013-10-19 17:26:00,
2013-10-19 12:31:00,61.1,40.7,30.14,North,355,3.5,3.5,47,0.00,CLR,,0.00,WeatherDisplay:10.37,2013-10-19 17:31:00,
2013-10-19 12:36:00,61.7,40.1,30.14,North,360,11.5,11.5,45,0.00,CLR,,0.00,WeatherDisplay:10.37,2013-10-19 17:36:00,
2013-10-19 12:41:00,61.9,40.3,30.14,NNE,18,6.9,6.9,45,0.00,CLR,,0.00,WeatherDisplay:10.37,2013-10-19 17:41:00,
2013-10-19 12:46:00,61.9,39.7,30.14,NNE,17,10.4,10.4,44,0.00,CLR,,0.00,WeatherDisplay:10.37,2013-10-19 17:46:00,
2013-10-19 12:51:00,62.1,39.9,30.14,North,5,5.8,5.8,44,0.00,CLR,,0.00,WeatherDisplay:10.37,2013-10-19 17:51:00,
2013-10-19 12:56:00,62.4,40.2,30.14,NE,34,4.6,4.6,44,0.00,CLR,,0.00,WeatherDisplay:10.37,2013-10-19 17:56:00,
2013-10-19 13:01:00,62.5,40.9,30.13,NNE,14,6.9,0.0,45,0.00,CLR,,0.00,WeatherDisplay:10.37,2013-10-19 18:01:00,
2013-10-19 13:06:00,62.9,40.6,30.13,North,360,13.0,13.0,44,0.00,CLR,,0.00,WeatherDisplay:10.37,2013-10-19 18:06:00,
2013-10-19 13:11:00,63.1,40.2,30.13,North,355,9.2,9.2,43,0.00,CLR,,0.00,WeatherDisplay:10.37,2013-10-19 18:11:00,
2013-10-19 13:16:00,63.3,39.8,30.13,NNE,14,3.5,3.5,42,0.00,CLR,,0.00,WeatherDisplay:10.37,2013-10-19 18:16:00,
2013-10-19 13:21:00,63.4,39.3,30.13,NNW,344,13.0,13.0,41,0.00,CLR,,0.00,WeatherDisplay:10.37,2013-10-19 18:21:00,
2013-10-19 13:26:00,63.5,40.0,30.13,NNW,334,10.0,10.0,42,0.00,CLR,,0.00,WeatherDisplay:10.37,2013-10-19 18:26:00,
2013-10-19 13:31:00,63.5,40.0,30.12,North,360,11.5,11.5,42,0.00,CLR,,0.00,WeatherDisplay:10.37,2013-10-19 18:31:00,
2013-10-19 13:36:00,63.7,41.9,30.12,North,360,4.0,0.0,45,0.00,CLR,,0.00,WeatherDisplay:10.37,2013-10-19 18:36:00,
2013-10-19 13:41:00,64.1,41.1,30.12,North,355,10.4,10.4,43,0.00,CLR,,0.00,WeatherDisplay:10.37,2013-10-19 18:41:00,
2013-10-19 13:46:00,64.3,40.1,30.12,NNW,342,8.0,8.0,41,0.00,CLR,,0.00,WeatherDisplay:10.37,2013-10-19 18:46:00,
2013-10-19 13:51:00,64.5,39.6,30.12,North,360,10.4,10.4,40,0.00,CLR,,0.00,WeatherDisplay:10.37,2013-10-19 18:51:00,
2013-10-19 13:56:00,64.6,39.7,30.12,North,355,6.9,6.9,40,0.00,CLR,,0.00,WeatherDisplay:10.37,2013-10-19 18:56:00,
2013-10-19 14:01:00,65.1,40.2,30.11,NNE,13,2.0,2.0,40,0.00,CLR,,0.00,WeatherDisplay:10.37,2013-10-19 19:01:00,
2013-10-19 14:06:00,65.0,39.4,30.11,NE,34,6.0,6.0,39,0.00,CLR,,0.00,WeatherDisplay:10.37,2013-10-19 19:06:00,
2013-10-19 14:11:00,65.0,40.1,30.11,NE,51,4.6,4.6,40,0.00,CLR,,0.00,WeatherDisplay:10.37,2013-10-19 19:11:00,
2013-10-19 14:16:00,65.4,39.8,30.11,North,360,11.5,11.5,39,0.00,CLR,,0.00,WeatherDisplay:10.37,2013-10-19 19:16:00,
2013-10-19 14:21:00,65.4,39.8,30.11,North,5,0.0,0.0,39,0.00,CLR,,0.00,WeatherDisplay:10.37,2013-10-19 19:21:00,
2013-10-19 14:26:00,65.6,40.6,30.11,North,360,13.0,13.0,40,0.00,CLR,,0.00,WeatherDisplay:10.37,2013-10-19 19:26:00,
2013-10-19 14:31:00,65.5,39.2,30.10,NNE,33,4.6,4.6,38,0.00,CLR,,0.00,WeatherDisplay:10.37,2013-10-19 19:31:00,
2013-10-19 14:36:00,65.5,40.5,30.10,NNE,26,6.0,6.0,40,0.00,CLR,,0.00,WeatherDisplay:10.37,2013-10-19 19:36:00,
2013-10-19 14:41:00,65.6,40.0,30.10,North,360,7.0,7.0,39,0.00,CLR,,0.00,WeatherDisplay:10.37,2013-10-19 19:41:00,
2013-10-19 14:46:00,66.0,39.7,30.10,North,360,3.5,3.5,38,0.00,CLR,,0.00,WeatherDisplay:10.37,2013-10-19 19:46:00,
2013-10-19 14:51:00,66.1,39.7,30.10,North,5,10.4,10.4,38,0.00,CLR,,0.00,WeatherDisplay:10.37,2013-10-19 19:51:00,
2013-10-19 14:56:00,66.2,39.8,30.10,North,360,8.0,8.0,38,0.00,CLR,,0.00,WeatherDisplay:10.37,2013-10-19 19:56:00,
2013-10-19 15:01:00,66.2,39.8,30.09,North,360,4.0,4.0,38,0.00,CLR,,0.00,WeatherDisplay:10.37,2013-10-19 20:01:00,
2013-10-19 15:06:00,66.2,39.8,30.09,North,360,10.4,10.4,38,0.00,CLR,,0.00,WeatherDisplay:10.37,2013-10-19 20:06:00,
2013-10-19 15:11:00,66.4,40.0,30.09,NNE,16,5.0,5.0,38,0.00,CLR,,0.00,WeatherDisplay:10.37,2013-10-19 20:11:00,
2013-10-19 15:16:00,66.7,40.3,30.09,North,360,5.8,5.8,38,0.00,CLR,,0.00,WeatherDisplay:10.37,2013-10-19 20:16:00,
2013-10-19 15:21:00,66.8,40.4,30.09,North,360,0.0,0.0,38,0.00,CLR,,0.00,WeatherDisplay:10.37,2013-10-19 20:21:00,
2013-10-19 15:26:00,66.7,40.3,30.09,North,5,3.5,3.5,38,0.00,CLR,,0.00,WeatherDisplay:10.37,2013-10-19 20:26:00,
2013-10-19 15:31:00,66.8,39.7,30.09,North,11,0.0,0.0,37,0.00,CLR,,0.00,WeatherDisplay:10.37,2013-10-19 20:31:00,
2013-10-19 15:36:00,67.0,39.1,30.09,ENE,68,8.0,8.0,36,0.00,CLR,,0.00,WeatherDisplay:10.37,2013-10-19 20:36:00,
2013-10-19 15:41:00,66.9,40.5,30.08,ENE,66,0.0,0.2,38,0.00,CLR,,0.00,WeatherDisplay:10.37,2013-10-19 20:41:00,
2013-10-19 15:46:00,67.0,39.9,30.08,ENE,60,6.0,6.0,37,0.00,CLR,,0.00,WeatherDisplay:10.37,2013-10-19 20:46:00,
2013-10-19 15:51:00,67.1,40.6,30.08,NNE,32,1.2,1.2,38,0.00,CLR,,0.00,WeatherDisplay:10.37,2013-10-19 20:51:00,
2013-10-19 15:56:00,67.4,40.2,30.08,NNE,27,8.0,8.0,37,0.00,CLR,,0.00,WeatherDisplay:10.37,2013-10-19 20:56:00,
2013-10-19 16:01:00,67.5,39.6,30.08,NNE,14,7.0,7.0,36,0.00,CLR,,0.00,WeatherDisplay:10.37,2013-10-19 21:01:00,
2013-10-19 16:06:00,67.4,39.5,30.08,North,11,10.4,10.4,36,0.00,CLR,,0.00,WeatherDisplay:10.37,2013-10-19 21:06:00,
2013-10-19 16:11:00,67.4,40.9,30.08,NNE,12,7.0,7.0,38,0.00,CLR,,0.00,WeatherDisplay:10.37,2013-10-19 21:11:00,
2013-10-19 16:16:00,67.6,41.1,30.08,North,11,3.5,0.0,38,0.00,CLR,,0.00,WeatherDisplay:10.37,2013-10-19 21:16:00,
2013-10-19 16:21:00,67.8,40.6,30.08,North,5,11.5,11.5,37,0.00,CLR,,0.00,WeatherDisplay:10.37,2013-10-19 21:21:00,
2013-10-19 16:26:00,67.9,39.9,30.08,NNE,19,0.0,0.0,36,0.00,CLR,,0.00,WeatherDisplay:10.37,2013-10-19 21:26:00,
2013-10-19 16:31:00,68.0,40.7,30.08,NNE,19,5.0,5.0,37,0.00,CLR,,0.00,WeatherDisplay:10.37,2013-10-19 21:31:00,
2013-10-19 16:36:00,68.0,40.7,30.08,NNE,19,4.6,4.6,37,0.00,CLR,,0.00,WeatherDisplay:10.37,2013-10-19 21:36:00,
2013-10-19 16:41:00,67.8,40.6,30.08,NNE,18,0.0,0.0,37,0.00,CLR,,0.00,WeatherDisplay:10.37,2013-10-19 21:41:00,
2013-10-19 16:46:00,67.8,40.6,30.07,NNE,19,0.0,0.0,37,0.00,CLR,,0.00,WeatherDisplay:10.37,2013-10-19 21:46:00,
2013-10-19 16:51:00,67.8,40.6,30.08,NNE,31,4.6,4.6,37,0.00,CLR,,0.00,WeatherDisplay:10.37,2013-10-19 21:51:00,
2013-10-19 16:56:00,67.7,40.5,30.07,NNE,33,3.0,3.0,37,0.00,CLR,,0.00,WeatherDisplay:10.37,2013-10-19 21:56:00,
2013-10-19 17:01:00,67.8,41.3,30.07,NE,34,0.0,0.7,38,0.00,CLR,,0.00,WeatherDisplay:10.37,2013-10-19 22:01:00,
2013-10-19 17:06:00,67.6,40.4,30.07,ENE,64,2.3,2.3,37,0.00,CLR,,0.00,WeatherDisplay:10.37,2013-10-19 22:06:00,
2013-10-19 17:11:00,67.3,39.4,30.07,ENE,63,4.6,4.6,36,0.00,CLR,,0.00,WeatherDisplay:10.37,2013-10-19 22:11:00,
2013-10-19 17:16:00,67.1,39.9,30.07,NE,55,3.0,3.0,37,0.00,CLR,,0.00,WeatherDisplay:10.37,2013-10-19 22:16:00,
2013-10-19 17:21:00,67.2,40.7,30.07,NE,56,3.0,0.0,38,0.00,CLR,,0.00,WeatherDisplay:10.37,2013-10-19 22:21:00,
2013-10-19 17:26:00,67.3,40.1,30.07,ENE,57,4.0,4.0,37,0.00,CLR,,0.00,WeatherDisplay:10.37,2013-10-19 22:26:00,
2013-10-19 17:31:00,67.4,40.2,30.06,NE,53,3.5,0.0,37,0.00,CLR,,0.00,WeatherDisplay:10.37,2013-10-19 22:31:00,
2013-10-19 17:36:00,67.3,40.1,30.06,NE,51,3.5,3.5,37,0.00,CLR,,0.00,WeatherDisplay:10.37,2013-10-19 22:36:00,
2013-10-19 17:41:00,67.3,40.8,30.06,NE,51,3.5,3.5,38,0.00,CLR,,0.00,WeatherDisplay:10.37,2013-10-19 22:41:00,
2013-10-19 17:46:00,67.1,39.9,30.06,NE,51,1.0,1.0,37,0.00,CLR,,0.00,WeatherDisplay:10.37,2013-10-19 22:46:00,
2013-10-19 17:51:00,67.1,40.6,30.06,NE,52,0.0,0.0,38,0.00,CLR,,0.00,WeatherDisplay:10.37,2013-10-19 22:51:00,
2013-10-19 17:56:00,67.1,40.6,30.06,NE,48,5.0,5.0,38,0.00,CLR,,0.00,WeatherDisplay:10.37,2013-10-19 22:56:00,
2013-10-19 18:01:00,67.0,40.5,30.06,NE,49,4.0,4.0,38,0.00,CLR,,0.00,WeatherDisplay:10.37,2013-10-19 23:01:00,
2013-10-19 18:06:00,66.8,41.0,30.06,NE,49,0.0,0.0,39,0.00,CLR,,0.00,WeatherDisplay:10.37,2013-10-19 23:06:00,
2013-10-19 18:11:00,66.8,41.0,30.06,NE,49,0.0,0.0,39,0.00,CLR,,0.00,WeatherDisplay:10.37,2013-10-19 23:11:00,
2013-10-19 18:16:00,66.7,40.9,30.06,NE,49,0.0,0.0,39,0.00,CLR,,0.00,WeatherDisplay:10.37,2013-10-19 23:16:00,
2013-10-19 18:21:00,66.6,40.2,30.06,NE,48,4.6,4.6,38,0.00,CLR,,0.00,WeatherDisplay:10.37,2013-10-19 23:21:00,
2013-10-19 18:26:00,66.5,41.4,30.06,NE,48,0.0,0.0,40,0.00,CLR,,0.00,WeatherDisplay:10.37,2013-10-19 23:26:00,
2013-10-19 18:31:00,66.3,41.2,30.06,NE,48,2.3,0.0,40,0.00,CLR,,0.00,WeatherDisplay:10.37,2013-10-19 23:31:00,
2013-10-19 18:36:00,66.1,41.7,30.06,NE,48,0.0,0.0,41,0.00,CLR,,0.00,WeatherDisplay:10.37,2013-10-19 23:36:00,
2013-10-19 18:41:00,66.0,42.2,30.06,NE,48,0.0,0.0,42,0.00,CLR,,0.00,WeatherDisplay:10.37,2013-10-19 23:41:00,
2013-10-19 18:46:00,65.8,42.1,30.06,NE,48,0.0,0.0,42,0.00,CLR,,0.00,WeatherDisplay:10.37,2013-10-19 23:46:00,
2013-10-19 18:51:00,65.6,42.5,30.06,NE,48,0.0,0.0,43,0.00,CLR,,0.00,WeatherDisplay:10.37,2013-10-19 23:51:00,
2013-10-19 18:56:00,65.4,42.3,30.06,NE,48,0.0,0.0,43,0.00,CLR,,0.00,WeatherDisplay:10.37,2013-10-19 23:56:00,
2013-10-19 19:01:00,65.1,42.6,30.06,NE,48,0.0,0.0,44,0.00,CLR,,0.00,WeatherDisplay:10.37,2013-10-20 00:01:00,
2013-10-19 19:06:00,64.7,44.0,30.06,NE,48,0.0,0.0,47,0.00,CLR,,0.00,WeatherDisplay:10.37,2013-10-20 00:06:00,
2013-10-19 19:11:00,64.4,43.7,30.06,NE,48,0.0,0.0,47,0.00,CLR,,0.00,WeatherDisplay:10.37,2013-10-20 00:11:00,
2013-10-19 19:16:00,63.8,43.2,30.06,NE,48,0.0,0.0,47,0.00,CLR,,0.00,WeatherDisplay:10.37,2013-10-20 00:16:00,
2013-10-19 19:21:00,63.2,44.2,30.06,NE,48,0.0,0.0,50,0.00,CLR,,0.00,WeatherDisplay:10.37,2013-10-20 00:21:00,
2013-10-19 19:26:00,62.7,45.3,30.06,NE,48,0.0,0.0,53,0.00,CLR,,0.00,WeatherDisplay:10.37,2013-10-20 00:26:00,
2013-10-19 19:31:00,62.2,44.9,30.06,NE,48,0.0,0.0,53,0.00,CLR,,0.00,WeatherDisplay:10.37,2013-10-20 00:31:00,
2013-10-19 19:36:00,61.6,43.8,30.06,NE,48,0.0,0.0,52,0.00,CLR,,0.00,WeatherDisplay:10.37,2013-10-20 00:36:00,
2013-10-19 19:41:00,60.9,45.6,30.06,NE,48,0.0,0.0,57,0.00,CLR,,0.00,WeatherDisplay:10.37,2013-10-20 00:41:00,
2013-10-19 19:46:00,60.4,45.5,30.06,NE,48,0.0,0.0,58,0.00,CLR,,0.00,WeatherDisplay:10.37,2013-10-20 00:46:00,
2013-10-19 19:51:00,59.8,45.4,30.06,NE,48,0.0,0.0,59,0.00,CLR,,0.00,WeatherDisplay:10.37,2013-10-20 00:51:00,
2013-10-19 19:56:00,59.4,45.1,30.06,NE,48,0.0,0.0,59,0.00,CLR,,0.00,WeatherDisplay:10.37,2013-10-20 00:56:00,
2013-10-19 20:01:00,58.8,44.5,30.06,NE,48,0.0,0.0,59,0.00,CLR,,0.00,WeatherDisplay:10.37,2013-10-20 01:01:00,
2013-10-19 20:06:00,58.3,44.9,30.06,NE,48,0.0,0.0,61,0.00,CLR,,0.00,WeatherDisplay:10.37,2013-10-20 01:06:00,
2013-10-19 20:11:00,57.9,45.4,30.07,NE,48,0.0,0.0,63,0.00,CLR,,0.00,WeatherDisplay:10.37,2013-10-20 01:11:00,
2013-10-19 20:16:00,57.4,45.3,30.07,NE,48,0.0,0.0,64,0.00,CLR,,0.00,WeatherDisplay:10.37,2013-10-20 01:16:00,
2013-10-19 20:21:00,57.0,45.3,30.07,NE,48,0.0,0.0,65,0.00,CLR,,0.00,WeatherDisplay:10.37,2013-10-20 01:21:00,
2013-10-19 20:26:00,56.5,45.3,30.07,NE,48,0.0,0.0,66,0.00,CLR,,0.00,WeatherDisplay:10.37,2013-10-20 01:26:00,
2013-10-19 20:31:00,56.1,45.3,30.07,NE,48,0.0,0.0,67,0.00,CLR,,0.00,WeatherDisplay:10.37,2013-10-20 01:31:00,
2013-10-19 20:36:00,55.6,45.2,30.07,NE,48,0.0,0.0,68,0.00,CLR,,0.00,WeatherDisplay:10.37,2013-10-20 01:36:00,
2013-10-19 20:41:00,55.2,45.2,30.08,NE,48,0.0,0.0,69,0.00,CLR,,0.00,WeatherDisplay:10.37,2013-10-20 01:41:00,
2013-10-19 20:46:00,54.8,44.8,30.08,NE,48,0.0,0.0,69,0.00,CLR,,0.00,WeatherDisplay:10.37,2013-10-20 01:46:00,
2013-10-19 20:51:00,54.3,44.7,30.08,NE,48,0.0,0.0,70,0.00,CLR,,0.00,WeatherDisplay:10.37,2013-10-20 01:51:00,
2013-10-19 20:56:00,53.9,44.7,30.08,NE,48,0.0,0.0,71,0.00,CLR,,0.00,WeatherDisplay:10.37,2013-10-20 01:56:00,
2013-10-19 21:01:00,53.5,44.7,30.08,NE,48,0.0,0.0,72,0.00,CLR,,0.00,WeatherDisplay:10.37,2013-10-20 02:01:00,
2013-10-19 21:06:00,53.1,44.3,30.08,NE,48,0.0,0.0,72,0.00,CLR,,0.00,WeatherDisplay:10.37,2013-10-20 02:06:00,
2013-10-19 21:11:00,52.7,44.3,30.08,NE,48,0.0,0.0,73,0.00,CLR,,0.00,WeatherDisplay:10.37,2013-10-20 02:11:00,
2013-10-19 21:16:00,52.4,44.4,30.08,NE,48,0.0,0.0,74,0.00,CLR,,0.00,WeatherDisplay:10.37,2013-10-20 02:16:00,
2013-10-19 21:21:00,52.1,44.4,30.08,NE,48,0.0,0.0,75,0.00,CLR,,0.00,WeatherDisplay:10.37,2013-10-20 02:21:00,
2013-10-19 21:26:00,51.9,44.2,30.08,NE,48,0.0,0.0,75,0.00,CLR,,0.00,WeatherDisplay:10.37,2013-10-20 02:26:00,
2013-10-19 21:31:00,51.6,44.3,30.08,NE,48,0.0,0.0,76,0.00,CLR,,0.00,WeatherDisplay:10.37,2013-10-20 02:31:00,
2013-10-19 21:36:00,51.4,44.1,30.09,NE,48,0.0,0.0,76,0.00,CLR,,0.00,WeatherDisplay:10.37,2013-10-20 02:36:00,
2013-10-19 21:41:00,51.1,44.1,30.09,NE,48,0.0,0.0,77,0.00,CLR,,0.00,WeatherDisplay:10.37,2013-10-20 02:41:00,
2013-10-19 21:46:00,50.9,44.3,30.09,NE,48,0.0,0.0,78,0.00,CLR,,0.00,WeatherDisplay:10.37,2013-10-20 02:46:00,
2013-10-19 21:51:00,50.7,44.1,30.08,NE,48,0.0,0.0,78,0.00,CLR,,0.00,WeatherDisplay:10.37,2013-10-20 02:51:00,
2013-10-19 21:56:00,50.4,44.1,30.08,NE,48,0.0,0.0,79,0.00,CLR,,0.00,WeatherDisplay:10.37,2013-10-20 02:56:00,
2013-10-19 22:01:00,50.2,43.9,30.09,NE,48,0.0,0.0,79,0.00,CLR,,0.00,WeatherDisplay:10.37,2013-10-20 03:01:00,
2013-10-19 22:06:00,50.0,43.7,30.09,NE,48,0.0,0.0,79,0.00,CLR,,0.00,WeatherDisplay:10.37,2013-10-20 03:06:00,
2013-10-19 22:11:00,49.9,44.0,30.09,NE,48,0.0,0.0,80,0.00,CLR,,0.00,WeatherDisplay:10.37,2013-10-20 03:11:00,
2013-10-19 22:16:00,49.7,43.8,30.09,NE,48,0.0,0.0,80,0.00,CLR,,0.00,WeatherDisplay:10.37,2013-10-20 03:16:00,
2013-10-19 22:21:00,49.6,43.7,30.09,NE,48,0.0,0.0,80,0.00,CLR,,0.00,WeatherDisplay:10.37,2013-10-20 03:21:00,
2013-10-19 22:26:00,49.4,43.5,30.09,NE,48,0.0,0.0,80,0.00,CLR,,0.00,WeatherDisplay:10.37,2013-10-20 03:26:00,
2013-10-19 22:31:00,49.2,43.3,30.09,NE,48,0.0,0.0,80,0.00,CLR,,0.00,WeatherDisplay:10.37,2013-10-20 03:31:00,
2013-10-19 22:36:00,49.1,43.5,30.09,NE,48,0.0,0.0,81,0.00,CLR,,0.00,WeatherDisplay:10.37,2013-10-20 03:36:00,
2013-10-19 22:41:00,49.0,43.7,30.09,NE,48,0.0,0.0,82,0.00,CLR,,0.00,WeatherDisplay:10.37,2013-10-20 03:41:00,
2013-10-19 22:46:00,48.9,43.6,30.09,NE,48,0.0,0.0,82,0.00,CLR,,0.00,WeatherDisplay:10.37,2013-10-20 03:46:00,
2013-10-19 22:51:00,48.8,43.5,30.09,NE,48,0.0,0.0,82,0.00,CLR,,0.00,WeatherDisplay:10.37,2013-10-20 03:51:00,
2013-10-19 22:56:00,48.7,43.8,30.09,NE,48,0.0,0.0,83,0.00,CLR,,0.00,WeatherDisplay:10.37,2013-10-20 03:56:00,
2013-10-19 23:01:00,48.6,43.7,30.09,NE,48,0.0,0.0,83,0.00,CLR,,0.00,WeatherDisplay:10.37,2013-10-20 04:01:00,
2013-10-19 23:02:00,48.6,43.7,30.09,NE,48,0.0,0.0,83,0.00,CLR,,0.00,WeatherDisplay:10.37,2013-10-20 04:02:00,
2013-10-19 23:07:00,48.5,43.6,30.09,NE,48,0.0,0.0,83,0.00,CLR,,0.00,WeatherDisplay:10.37,2013-10-20 04:07:00,
2013-10-19 23:12:00,48.4,43.5,30.09,NE,48,0.0,0.0,83,0.00,CLR,,0.00,WeatherDisplay:10.37,2013-10-20 04:12:00,
2013-10-19 23:17:00,48.4,43.8,30.09,NE,48,0.0,0.0,84,0.00,CLR,,0.00,WeatherDisplay:10.37,2013-10-20 04:17:00,
2013-10-19 23:22:00,48.2,43.3,30.09,NE,48,0.0,0.0,83,0.00,CLR,,0.00,WeatherDisplay:10.37,2013-10-20 04:22:00,
2013-10-19 23:27:00,48.1,43.5,30.09,NE,48,0.0,0.0,84,0.00,CLR,,0.00,WeatherDisplay:10.37,2013-10-20 04:27:00,
2013-10-19 23:32:00,48.1,43.5,30.09,NE,48,0.0,0.0,84,0.00,CLR,,0.00,WeatherDisplay:10.37,2013-10-20 04:32:00,
2013-10-19 23:37:00,48.0,43.4,30.09,NE,48,0.0,0.0,84,0.00,CLR,,0.00,WeatherDisplay:10.37,2013-10-20 04:37:00,
2013-10-19 23:42:00,47.9,43.3,30.09,NE,48,0.0,0.0,84,0.00,CLR,,0.00,WeatherDisplay:10.37,2013-10-20 04:42:00,
2013-10-19 23:47:00,47.9,43.6,30.09,NE,48,0.0,0.0,85,0.00,CLR,,0.00,WeatherDisplay:10.37,2013-10-20 04:47:00,
2013-10-19 23:52:00,47.8,43.2,30.08,NE,48,0.0,0.0,84,0.00,CLR,,0.00,WeatherDisplay:10.37,2013-10-20 04:52:00,
2013-10-19 23:57:00,47.8,43.5,30.08,NE,48,0.0,0.0,85,0.00,CLR,,0.00,WeatherDisplay:10.37,2013-10-20 04:57:00,